STARLINK-2695, 48644

Orbit data source: Space-Track

STARLINK-2695, 48644 is a payload satellite owned by SpaceX/Seattle (US) in LEO that was launched on Wed, 26 May 2021 UTC via an FALCON 9 launch vehicle from the Air Force Eastern Test Range (AFETR). Payload-class satellites include a variety of spacecraft equipped with specific instruments for various scientific and technological missions. These include communications satellites like Starlink; space stations such as the ISS; scientific satellites like the Hubble; Earth observation satellites from companies like Planet Labs, Umbra, and HawkEye 360; GPS; miniature CubeSats for education and research; and military/defense satellites.

Loading next visibility...
Identifier
48644, 2021-044G
Orbit
LEO
Country
Flag of USUS
Related business
Manufacturer
SpaceX/Seattle
Mission
Operational Commercial Communications
Bus & Motor
STARLINK, Unknown motor
Mass
260 kg wet, ~248 kg dry
Launch date (UTC)
2021-05-26 (5 years ago)
Launch vehicle
FALCON 9
Launch site
Air Force Eastern Test Range (AFETR)
Object type
Payload
Rocket body
Debris
Shape & HBR
Box + 1 Pan, 10.1 m
Radar Cross Section
13.562 m², Large (>1 m²)

Expand to show TLE details & history
Last TLE update: 11 hours ago

TLE from 11 hours ago
0 STARLINK-2695
1 48644U 21044G   25349.71391977  .00002506  00000-0  18709-3 0  9995
2 48644  53.0542 138.5986 0001262  78.7517 281.3613 15.06400508251059
Epoch: 2025-12-15T17:08Z
TLE epoch observation values (Epoch: 2025-12-15T17:08:02.668Z)
Latitude
-0.00007°
Longitude
156.97891°
Altitude
547.917 km
Speed
7.589 km/s
True Right ascension
09h 14m 23s
True Declination
0° 00' 00"
Sunlit
Object was in full shadow at epoch
Visualization orbit readout
Latitude
Unknown
Longitude
Unknown
Altitude
Unknown
Speed
Unknown
Apparent Right ascension
Unknown
Apparent Declination
Unknown
Sunlit
N/A
Visualization observer readout
Local Sidereal Time
02:28:02
Azimuth
Unknown
Elevation
Unknown
Doppler factor
Unknown
Orbital elements
Apogee altitude
548.355 km
Perigee altitude
546.607 km
Semi-major axis
6,925.618 km
Eccentricity
0.00013
Inclination
53.0542°
RAAN
138.5986°
Arg. of periapsis
78.7517°
True anomaly
281.34712°
Mean anomaly
281.3613°
Eccentric anomaly
281.35421°
Mean motion
3.76578 °/min
Orbital period
95.6 mins
BSTAR
0.00018709
Loading maneuver chart data...
Computing Atmospheric mass density...
Loading historical data...
Loading historical data...
Loading historical data...
Loading historical data...
Loading historical data...
Loading historical data...
Loading historical data...

Documentation

Showing up to 5 results
|